Regional Weather Roundup
Issued by NWS

Home | Current Version | Previous Version | Text Only | Print | Product List | Glossary Off
Versions: 1 2 3 4 5 6 7 8 9 10 11 12 13 14

000
ASUS45 KTFX 151410
RWRMT
MONTANA REGIONAL WEATHER ROUNDUP
NATIONAL WEATHER SERVICE GREAT FALLS MT
700 AM MST SUN JAN 15 2017

NOTE: "FAIR" INDICATES FEW OR NO CLOUDS BELOW 12000 FEET WITH NO
SIGNIFICANT WEATHER AND/OR OBSTRUCTIONS TO VISIBILITY.

MTZ001>007-043-151500-
WEST OF THE DIVIDE

CITY           SKY/WX    TMP DP  RH WIND       PRES   REMARKS
KALISPELL      CLOUDY    14  10  84 E3        30.33F
MISSOULA       CLOUDY    -9 -13  83 CALM      30.38F FOG
BUTTE          CLOUDY   -10 -15  78 CALM      30.20R
MULLAN PASS    PTCLDY    20   4  50 W6        30.12F WCI  12
ANACONDA         N/A     -2  -8  78 NW3       30.21S
DEER LODGE       N/A     -8 -11  84 CALM      30.27S
HAMILTON         N/A     -8 -13  77 CALM      30.33S
PLAINS           N/A    -11 -20  64 CALM      30.37F
RONAN            N/A      0  -6  75 MISG      30.32F VSB 1
THOMPSON FALLS   N/A     -1  -7  76 NE5       30.38F
$$

MTZ008-052>055-151500-
SOUTHWEST MONTANA

CITY           SKY/WX    TMP DP  RH WIND       PRES   REMARKS
BOZEMAN        CLEAR     -9 -13  83 SE3       30.21F
DILLON         CLOUDY    11  -7  44 SW10      30.18F WCI  -3
W YELLOWSTONE  HAZE     -24 -29  76 CALM      30.22S VSB 1
ENNIS          CLEAR      0  -8  71 CALM      30.22S
TWIN BRIDGES     N/A     -3 -14  59 E7        30.16S WCI -16
$$

MTZ009-010-012-014-046-048-049-054-151500-
EAST SLOPES AND CENTRAL MONTANA

CITY           SKY/WX    TMP DP  RH WIND       PRES   REMARKS
CUT BANK       MOCLDY    31  11  43 W35       29.94F WCI  15
GREAT FALLS    CLOUDY    26  10  50 SW25      30.03F WCI  11
MALMSTROM AFB  CLOUDY    23  12  63 SW21      30.04F WCI   8
HELENA         CLOUDY    -9 -13  83 CALM      30.25S FOG
AUGUSTA          N/A     22   7  52 SW7       30.01F WCI  14
BOWMANS CRNR     N/A     18   5  57 S26       30.03F WCI  -1
CHOTEAU          N/A     30  10  43 S8        30.01S WCI  23
CONRAD           N/A     18   9  68 S7        29.99F WCI   9
FAIRFIELD        N/A     21   8  57 S21       30.01F WCI   6
POWER            N/A     21   9  58 SW17      30.01F WCI   7
RAYNESFORD       N/A     32   9  38 SW14G21   30.04F WCI  22
ULM              N/A     18   6  58 MISG      30.07F
$$

MTZ011-013-016-021-045-047-050-051-151500-
NORTH CENTRAL MONTANA

CITY           SKY/WX    TMP DP  RH WIND       PRES   REMARKS
HAVRE          CLOUDY     9   3  77 W10       30.01F WCI  -5
LEWISTOWN      CLOUDY    14   3  61 SE7       30.03F WCI   4
N BAR RANCH      N/A     25   9  50 W16       30.04R WCI  12
CHINOOK          N/A     -6  -9  84 CALM      30.03F
DENTON           N/A     17   8  67 S13       29.99F WCI   3
FORT BENTON      N/A     27  12  54 MISG      30.04F
GEYSER           N/A     28  10  47 W22       30.00F WCI  14
GRASS RANGE      N/A     31   8  37 W17       29.99S WCI  20
JUDITH GAP       N/A     17   6  62 S12       30.02S WCI   4
ROY              N/A     28  11  48 MISG      30.00S
STANFORD         N/A     25  10  52 CALM      30.01F
WINIFRED         N/A     31   9  40 SW13      30.01F WCI  21
$$

MTZ017>020-022>027-061-062-151500-
NORTHEAST MONTANA

CITY           SKY/WX    TMP DP  RH WIND       PRES   REMARKS
GLASGOW        CLOUDY    -7 -12  79 CALM      30.04F
JORDAN           N/A     -3  -8  79 W6        30.05S WCI -15
SIDNEY         CLOUDY     4  -2  76 S15       30.10F WCI -14
WOLF POINT     CLOUDY   -10 -16  74 W6        30.08F WCI -23
PLENTYWOOD       N/A      0  -6  78 E7        30.00F WCI -13
POPLAR           N/A     -6 -11  77 W5        30.08F
SCOBEY           N/A      3  -8  60 S5        29.99F
$$

MTZ028>42-056>058-151500-
SOUTHCENTRAL AND SOUTHEAST MONTANA

CITY           SKY/WX    TMP DP  RH WIND       PRES   REMARKS
BAKER          CLOUDY    -3  -8  79 CALM      30.11S
BILLINGS       CLOUDY    16   3  56 SW24      30.09F WCI  -2
LIVINGSTON     CLOUDY    24   7  48 W26       30.11F WCI   8
MILES CITY     CLOUDY    -1  -8  72 S12       30.12S WCI -18
BIG TIMBER     CLEAR     27   7  43 W31G38    30.09S WCI  10
EKALAKA          N/A     22  -3  33 SE2       30.05F
FORSYTH          N/A      0  -6  78 CALM      30.12S
HARLOWTON        N/A     24   9  53 W20       30.05S WCI  10
LAUREL           N/A     11  -2  56 SW18      30.07F WCI  -7
$$

REGIONAL REPORTS...DAKOTAS

CITY           SKY/WX    TMP DP  RH WIND       PRES   REMARKS
WILLISTON      CLOUDY     1  -3  83 S5        30.08F
MINOT          CLOUDY    11   2  67 SW22      30.02F WCI  -8
DICKINSON      CLOUDY    16   4  59 SW20      30.06F WCI  -1
BEACH            N/A     18   5  57 W14       30.10S WCI   4
CROSBY           N/A      7   0  72 SW17      30.01F WCI -12
TIOGA            N/A      5   0  78 SW6       30.04F WCI  -6
WATFORD CITY     N/A      3  -2  78 SW9       30.07F WCI -11
BISMARCK       CLOUDY   -10 -15  78 CALM      30.15F
GRAND FORKS    CLOUDY     0  -6  76 S10       30.13F WCI -16
FARGO          CLOUDY     7   1  76 S10       30.20F WCI  -8
BUFFALO SD       N/A     18   9  68 SW3       30.04F
RAPID CITY     CLOUDY    19   1  45 W6        30.12S WCI  11
$$

REGIONAL REPORTS...WYOMING/IDAHO/WASHINGTON

CITY           SKY/WX    TMP DP  RH WIND       PRES   REMARKS
GILLETTE       CLOUDY     7   1  76 S6        30.10S WCI  -3
SHERIDAN       CLOUDY     1  -8  66 SE13      30.09F WCI -17
BUFFALO WY     CLOUDY    26  -5  25 W10       30.07F WCI  16
CODY           CLOUDY     3  -2  79 CALM      30.12R
YELLOWSTONE LA   N/A    -24 -28  81 CALM      30.18F
IDAHO FALLS    CLOUDY     0  -3  87 N6        30.21S WCI -12
SALMON         CLOUDY   -18 -18 100 CALM      30.50S
BOISE          LGT SNOW  10   7  87 NW5       30.39S FOG
SPOKANE        SNOW       2   0  91 S7        30.33F VSB 1/2 WCI -11
$$

REGIONAL REPORTS...ALBERTA

CITY           SKY/WX    TMP DP  RH WIND       PRES   REMARKS
EDMONTON       CLEAR     30  16  55 SW8       29.81S WCI  23
CALGARY        MOCLDY    41  16  36 W17G26    29.85F
LETHBRIDGE     CLOUDY    32  21  64 W31G39    29.90F WCI  17
MEDICINE HAT   MOCLDY    23  14  68 SW13      29.92S WCI  11
WATERTON GATE    N/A     30   7  37 SW30G43     N/A  WCI  15
CARDSTON         N/A     37  10  32 W15G23      N/A  WCI  28
MILK RIVER       N/A     32  21  64 W28         N/A  WCI  18
$$

REGIONAL REPORTS...SASKATCHEWAN

CITY           SKY/WX    TMP DP  RH WIND       PRES   REMARKS
SWIFT CURRENT  CLEAR     18  10  73 SW14      29.88F WCI   4
REGINA         MOCLDY     5   0  78 SE9       29.93F WCI  -9
SASKATOON      MOCLDY    18  12  79 S12       29.84F WCI   5
VAL MARIE        N/A     -9 -15  77 CALM        N/A
ROCKGLEN         N/A     19   9  63 W22         N/A  WCI   3
ASSINIBOIA       N/A     28  19  69 SW6         N/A  WCI  22
$$




USA.gov is the U.S. government's official web portal to all federal, state and local government web resources and services.